sat.trackr.live / text

‹ back to catalog

STARLINK-2406

NORAD 47821 · 2021-018AL

PAYLOAD ACTIVE UNKNOWN

§ Identity

Operator
Country
US
Launch date
2021-03-11
Launch site
AFETR
Launch vehicle
Mass (kg)
RCS (m²)

Purposes: comms

External: N2YO · Heavens-Above · Gunter

§ Orbital elements

Epoch: 2026-09-20T00:45:52.838784Z

Period
94.01 min
Inclination
53.1608°
Eccentricity
0.0001201
Mean motion
15.31693088 rev/d
Perigee alt
469.9 km
Apogee alt
471.6 km
Semi-major
6,848.9 km
B*
2.2836e-5
RAAN
58.4840°
Arg perigee
83.3360°
Mean anomaly
276.7778°
Rev number
30,650

§ Raw data

STARLINK-24061 47821U 21018AL  26263.03186156  .00000343  00000+0  22836-4 0  99972 47821  53.1608  58.4840 0001201  83.3360 276.7778 15.31693088306505

JSON: /api/v1/satellites/47821 · /tle

For live sub-satellite position, see the globe view (requires WebGL).

§ Visibility from observer

Set your observer location to see the next 7 days of passes ≥ 10°. The values pass through the URL so the page stays shareable.

No JS? Fill the form by hand. The geolocation button needs JavaScript.